KD7DVD-1 Weather Reports


Display with metric or nautical units.
time (UTC)temp
F
wind
direction
speed
MPH
gust
MPH
rain 1hr
in
rain 24hr
in
rain mn
in
humidity
%
barometer
mb
20260902153020 62 0.0 1.0 0.00 0.00 0.00 84 1006.4
20260902150015 59 0.0 0.0 0.00 0.00 0.00 89 1006.7
20260902143016 58 0.0 0.0 0.00 0.00 0.00 91 1007.2
20260902140022 57 0.0 0.0 0.00 0.00 0.00 91 1007.2
20260902133022 57 0.0 0.0 0.00 0.00 0.00 90 1007.2
20260902130022 58 0.0 0.0 0.00 0.00 0.00 90 1007.5
20260902123017 58 0.0 0.0 0.00 0.00 0.00 91 1007.7
20260902120017 58 0.0 0.0 0.00 0.00 0.00 91 1007.8
20260902113017 58 0.0 0.0 0.00 0.00 0.00 91 1008.0
20260902110022 58 0.0 0.0 0.00 0.00 0.00 90 1008.2
20260902103017 58 0.0 0.0 0.00 0.00 0.00 89 1008.4
20260902100017 59 0.0 0.0 0.00 0.00 0.00 87 1008.6
20260902093017 60 0.0 1.0 0.00 0.00 0.00 85 1008.6
20260902090017 61 0.0 3.0 0.00 0.00 0.00 86 1009.0
20260902083016 60 0.0 0.0 0.00 0.00 0.00 88 1009.3
20260902080022 60 0.0 0.0 0.00 0.00 0.00 87 1009.4
20260902073016 61 0.0 0.0 0.00 0.00 0.00 86 1009.5
20260902070021 61 0.0 0.0 0.00 0.00 0.00 84 1009.6
20260902063020 60 0.0 0.0 0.00 0.00 0.00 83 1009.8
20260902060015 60 0.0 1.0 0.00 0.00 0.00 84 1009.7
20260902053017 61 0.0 1.0 0.00 0.00 0.00 84 1010.0
20260902050018 61 0.0 1.0 0.00 0.00 0.00 85 1009.9
20260902043017 62 0.0 1.0 0.00 0.00 0.00 84 1009.8
20260902040017 63 0.0 1.0 0.00 0.00 0.00 83 1009.8
20260902033017 63 0.0 3.0 0.00 0.00 0.00 80 1009.6
20260902030017 65 0.0 4.0 0.00 0.00 0.00 74 1009.4
20260902023017 66 0.0 7.0 0.00 0.00 0.00 74 1009.3
20260902020017 66 0.0 3.0 0.00 0.00 0.00 73 1009.4
20260902013017 67 0.0 4.0 0.00 0.00 0.00 71 1009.3
20260902010017 67 0.0 3.0 0.00 0.00 0.00 71 1009.2
20260902003022 68 0.0 4.0 0.00 0.00 0.00 69 1009.3
20260902000017 69 0.0 5.0 0.00 0.00 0.00 69 1009.2
20260901233016 68 0.0 4.0 0.00 0.00 0.00 68 1009.3
20260901230017 69 0.0 4.0 0.00 0.00 0.00 69 1009.3
20260901223016 68 0.0 2.0 0.00 0.00 0.00 71 1009.4
20260901220016 69 0.0 7.0 0.00 0.00 0.00 70 1009.4
20260901213016 69 0.0 7.0 0.00 0.00 0.00 68 1009.5
20260901210016 70 0.0 4.0 0.00 0.00 0.00 67 1009.7
20260901203016 71 0.0 3.0 0.00 0.00 0.00 66 1009.7
20260901200016 70 0.0 3.0 0.00 0.00 0.00 67 1009.7
20260901193016 69 0.0 4.0 0.00 0.00 0.00 68 1009.7
20260901190016 69 0.0 6.0 0.00 0.00 0.00 71 1010.0
20260901183016 67 0.0 6.0 0.00 0.00 0.00 73 1010.0
20260901180021 66 0.0 3.0 0.00 0.00 0.00 76 1009.9
20260901173016 64 0.0 3.0 0.00 0.00 0.00 79 1009.7
20260901170021 63 0.0 3.0 0.00 0.00 0.00 81 1009.9
20260901163016 62 0.0 5.0 0.00 0.00 0.00 83 1009.9
20260901160015 61 0.0 2.0 0.00 0.00 0.00 85 1010.0